Wetbulb
55.34 55.69 56.54 56.80 57.01 57.20 57.26 57.39 57.82 58.06 58.34 58.71 58.89 58.97 59.09 59.13 57.93 51.67 45.61 51.32 53.87 64.17 64.16 52.47 52.01 52.04 51.39 49.12 49.70 50.61 44.74 42.41 45.46 48.18 50.78 55.46 54.05 56.78 56.09 53.94 58.17 62.78 63.68 68.16 72.85
55.10 55.68 56.23 56.44 56.61 57.01 57.13 57.33 57.75 58.05 58.39 58.74 58.99 59.10 58.68 58.66 51.56 49.46 57.09 63.58 64.04 64.57 51.35 49.29 48.36 50.20 48.41 47.51 48.51 47.19 43.28 46.04 50.96 52.11 51.73 54.96 55.73 54.35 51.97 51.98 52.76 57.97 58.43 67.96 72.53
55.13 56.11 56.40 56.74 56.72 56.84 57.06 57.39 57.61 58.20 58.56 58.68 58.54 58.44 58.21 56.90 49.56 54.25 65.80 64.86 66.82 61.15 51.29 50.55 49.31 49.22 45.03 46.16 46.83 46.11 44.65 49.65 53.73 53.61 53.29 54.85 56.56 56.53 51.11 50.38 50.36 50.20 52.32 55.34 66.06
55.23 56.04 56.47 56.52 56.64 56.86 57.06 57.29 57.54 57.93 57.97 58.11 58.23 58.15 57.88 52.40 42.16 51.01 67.45 66.91 64.77 55.02 51.78 49.44 48.56 44.58 43.16 44.39 46.75 43.47 49.28 51.21 51.69 54.48 54.90 53.91 56.99 51.70 52.78 52.81 54.59 52.59 52.82 51.50 55.25
55.38 56.26 56.50 56.39 56.73 56.91 57.14 57.27 57.42 57.41 57.45 57.69 58.04 58.20 52.21 47.14 50.14 56.73 66.66 64.63 55.37 51.92 49.14 47.49 44.92 45.08 43.33 44.38 47.12 46.43 48.10 49.38 52.49 53.65 52.73 54.91 55.51 55.10 53.04 53.45 54.46 52.59 53.28 52.03 51.33
55.74 56.04 56.30 56.53 56.79 57.01 57.43 57.27 56.89 57.06 57.22 57.54 58.09 57.92 51.17 45.03 56.23 57.61 54.68 54.12 52.32 49.66 47.76 48.03 46.47 48.77 45.46 45.31 45.10 48.68 49.00 48.54 49.54 50.16 54.90 51.97 53.09 50.79 55.29 53.61 52.87 51.77 52.51 52.09 52.14
55.47 55.39 55.74 56.24 56.83 56.97 57.25 56.54 56.20 56.59 57.47 57.74 58.42 56.53 50.56 49.75 56.29 53.56 53.13 50.73 51.77 52.71 49.80 50.28 50.11 48.06 46.12 43.99 46.83 47.70 43.93 46.18 46.73 46.24 49.03 51.13 48.05 48.23 53.14 52.95 52.10 52.20 51.82 53.42 54.45
55.15 55.09 55.33 55.86 56.53 56.99 57.17 56.57 56.25 56.74 57.33 58.00 58.71 53.48 47.72 56.86 57.77 53.30 52.54 52.64 53.15 52.54 52.31 53.40 51.38 47.62 45.05 46.09 45.71 42.80 42.46 39.40 44.09 46.06 48.11 50.05 43.49 49.70 51.83 49.38 50.13 51.03 52.72 56.07 55.94
54.57 54.52 54.82 55.45 56.02 56.51 56.58 55.81 56.55 57.00 57.80 58.53 52.91 48.54 47.72 58.49 51.15 54.81 53.32 52.17 51.40 51.49 52.50 55.63 47.99 44.17 45.05 41.21 39.43 39.92 36.54 37.72 43.13 45.44 45.82 45.32 43.28 49.27 50.76 49.38 49.51 50.03 54.29 56.18 57.32
54.02 54.01 54.39 54.86 55.47 55.71 55.00 55.15 57.04 57.07 56.92 56.87 55.39 47.21 49.79 50.68 51.52 53.29 52.21 52.59 50.46 49.67 48.51 47.31 42.96 40.05 38.28 39.16 34.95 37.22 37.19 38.59 41.88 46.55 45.21 41.09 44.22 47.42 48.30 48.97 48.38 53.58 54.49 56.06 59.06
53.69 53.56 53.80 54.41 55.04 54.56 51.75 49.49 49.24 47.95 49.27 48.07 49.15 49.71 51.19 53.53 51.91 50.66 52.82 50.85 49.17 47.01 41.16 43.17 39.97 37.62 39.64 40.58 41.88 40.77 39.43 39.07 42.45 45.16 41.80 40.57 41.98 45.60 46.81 48.11 48.96 52.91 54.36 56.61 58.35
53.48 53.35 53.66 53.86 54.53 54.05 49.54 47.71 49.90 50.24 46.64 51.62 52.28 52.11 54.46 53.68 48.36 49.70 52.47 46.44 46.09 41.46 43.28 40.93 38.30 43.52 43.99 42.16 41.30 40.27 38.53 38.62 42.68 45.84 42.29 41.28 41.33 44.33 47.16 47.29 49.18 53.36 54.12 55.65 57.69
52.69 52.62 53.10 53.63 53.41 50.60 48.97 50.84 52.58 51.26 44.54 49.71 52.34 52.10 51.95 50.32 46.97 48.15 49.65 47.13 44.83 42.24 41.87 39.45 43.16 46.82 44.27 42.20 41.90 39.05 37.89 40.07 41.12 44.43 42.55 40.93 40.41 41.13 47.51 49.26 49.76 53.35 55.14 57.52 57.98
52.42 52.17 52.75 52.46 49.71 49.66 48.24 52.08 51.62 51.17 40.73 46.33 47.80 49.95 48.65 48.39 46.86 51.56 51.02 48.77 46.13 43.08 43.06 40.92 45.02 45.37 42.97 43.51 42.43 37.08 43.16 43.33 42.19 39.70 36.91 40.93 32.96 39.46 44.45 47.32 50.27 50.20 51.39 53.51 55.06
52.05 52.18 52.42 51.92 46.65 47.68 50.44 51.50 52.06 51.72 32.88 49.72 45.66 49.75 47.29 46.39 47.81 49.12 51.71 49.69 44.97 44.40 44.00 41.63 42.94 42.22 41.87 42.58 45.02 41.74 44.57 41.26 41.05 36.62 34.63 38.95 34.03 39.60 42.91 43.04 44.68 48.08 49.58 49.57 50.81
51.43 51.57 51.94 51.10 49.00 51.14 53.18 50.99 50.69 41.81 35.63 45.73 46.46 44.41 43.53 45.26 46.97 48.79 49.96 50.84 49.53 46.03 45.44 43.94 45.89 44.10 42.65 44.48 44.50 45.63 41.56 38.68 36.15 33.86 29.91 35.78 35.24 37.68 39.46 42.42 45.58 48.08 49.15 49.96 49.75
51.00 50.61 49.23 51.49 47.10 50.35 52.39 48.88 39.65 35.07 48.31 45.31 42.26 43.97 43.22 43.13 44.84 47.27 45.59 43.41 40.52 37.31 37.77 43.78 43.28 45.41 44.78 41.46 42.25 40.84 35.45 29.67 29.23 28.15 28.11 36.18 37.57 36.67 44.08 46.60 46.18 44.27 44.18 44.85 45.57
49.66 49.35 49.77 51.71 48.64 51.67 51.57 43.98 33.88 44.62 46.19 46.77 44.92 43.85 42.51 44.16 43.62 45.84 43.83 40.65 44.33 41.87 38.06 36.66 36.52 43.18 45.60 40.68 36.77 36.95 35.73 30.32 26.67 25.83 28.34 38.24 33.50 37.20 42.58 43.67 44.19 44.37 44.64 44.95 44.34
48.37 46.48 49.14 51.03 51.38 51.68 48.26 38.24 39.09 44.98 47.01 45.75 44.78 41.70 41.99 44.60 44.08 44.29 42.02 41.34 43.10 42.30 36.59 35.39 38.48 46.56 46.98 44.42 40.37 36.62 34.49 36.08 30.82 29.12 30.30 33.12 37.58 40.04 42.49 42.02 43.30 43.10 43.55 43.17 43.67
42.35 46.98 50.75 52.76 53.76 51.41 44.53 40.95 45.09 50.18 49.50 47.34 41.01 43.24 39.13 41.92 40.93 41.79 41.61 44.91 44.58 46.41 42.54 39.97 33.83 43.46 46.24 46.03 44.32 40.12 40.97 33.00 30.38 25.50 24.54 30.86 32.34 30.54 36.31 38.26 39.79 39.48 39.33 40.91 41.77
43.47 45.93 52.21 53.56 53.55 46.95 36.09 40.88 47.55 51.33 49.79 45.96 43.32 42.80 42.81 41.35 42.48 41.42 42.19 44.68 46.37 46.51 44.59 40.79 37.07 37.85 41.91 39.68 38.34 38.51 36.15 33.74 32.44 30.55 25.84 25.38 28.13 38.12 36.64 37.59 36.66 37.66 39.25 38.96 39.51
39.20 40.59 53.00 50.95 43.42 40.11 39.46 45.39 48.98 49.07 49.34 48.08 46.74 45.50 42.97 43.26 41.93 42.28 42.62 44.44 48.16 46.86 41.25 39.90 35.54 31.12 35.91 43.14 44.47 40.03 35.64 34.04 28.17 28.91 28.61 27.18 27.03 40.11 38.41 38.11 37.15 37.64 38.89 39.26 39.12
37.42 40.42 51.47 49.71 38.43 37.85 43.34 47.70 49.39 48.45 47.10 46.84 46.13 46.18 44.64 41.61 37.56 43.27 44.41 47.15 47.95 44.68 40.51 38.42 32.45 26.05 29.33 37.94 41.14 37.88 40.27 37.12 33.29 30.16 28.81 24.66 26.81 39.75 39.76 38.68 38.81 37.33 38.59 38.66 39.70
41.50 41.05 43.41 44.80 42.22 40.15 40.60 43.51 44.20 48.23 46.80 46.53 45.12 45.98 43.26 40.89 41.24 40.55 43.19 46.70 47.10 45.75 48.79 42.17 31.77 28.88 24.04 31.68 36.76 35.62 37.41 37.30 32.17 23.53 27.93 29.31 31.51 35.45 37.60 37.61 38.15 37.62 37.54 37.70 37.85
39.79 38.49 40.90 37.31 40.96 41.10 40.10 42.64 43.64 43.41 46.00 45.50 43.70 44.30 41.15 35.09 38.71 39.35 43.21 43.65 45.17 48.92 43.15 39.04 33.35 35.61 36.66 39.35 39.20 37.27 36.93 36.44 32.23 31.45 27.61 31.23 33.29 35.41 36.67 37.01 37.44 37.86 38.19 37.14 36.27
37.27 36.67 37.97 38.02 41.41 40.85 40.26 43.11 43.46 44.23 43.44 42.34 42.31 44.12 42.63 38.57 38.96 37.68 40.50 39.91 39.48 42.18 40.22 38.34 33.06 34.57 33.62 40.06 39.74 36.15 37.70 37.40 37.31 36.82 35.69 35.27 33.17 37.88 39.42 39.09 38.25 36.98 36.19 35.13 35.92
38.63 40.19 39.29 40.14 40.32 38.22 37.88 42.10 44.37 44.72 45.02 45.52 45.56 42.75 41.54 42.67 43.58 41.36 41.62 41.11 40.82 39.30 36.87 35.73 33.11 29.27 28.73 36.91 35.02 28.16 35.35 37.52 37.60 37.93 36.64 30.88 34.49 37.55 37.03 37.41 36.38 35.42 35.22 35.51 36.72
MSLP
1016.42 1016.18 1015.96 1015.77 1015.60 1015.46 1015.31 1015.11 1014.89 1014.70 1014.50 1014.24 1013.98 1013.73 1013.53 1013.32 1012.80 1012.57 1011.69 1009.44 1009.29 1009.20 1009.20 1009.04 1008.74 1008.96 1008.91 1009.20 1009.23 1009.58 1010.74 1010.93 1009.94 1009.15 1008.50 1007.95 1008.43 1006.99 1006.54 1006.88 1008.08 1008.55 1008.22 1006.99 1007.19
1016.50 1016.23 1015.96 1015.75 1015.54 1015.35 1015.18 1015.00 1014.79 1014.55 1014.28 1014.04 1013.84 1013.69 1013.53 1013.30 1012.95 1011.76 1008.94 1008.81 1008.97 1009.22 1009.21 1009.18 1009.25 1009.19 1009.40 1009.39 1009.52 1009.90 1010.62 1010.43 1009.20 1008.48 1008.38 1008.33 1007.90 1007.27 1007.01 1007.15 1007.80 1007.63 1006.96 1006.74 1007.11
1016.53 1016.18 1015.93 1015.69 1015.50 1015.31 1015.11 1014.88 1014.64 1014.38 1014.13 1013.96 1013.83 1013.67 1013.55 1013.39 1012.66 1009.66 1008.23 1008.49 1009.02 1009.29 1009.37 1009.33 1009.32 1009.33 1009.65 1009.58 1009.44 1009.67 1009.98 1009.54 1008.69 1007.96 1007.60 1007.35 1007.02 1006.95 1007.29 1007.36 1007.17 1007.14 1006.95 1007.02 1007.47
1016.58 1016.19 1015.89 1015.63 1015.38 1015.17 1014.96 1014.74 1014.52 1014.29 1014.09 1013.93 1013.75 1013.58 1013.40 1013.24 1011.49 1008.60 1008.27 1008.34 1008.86 1009.21 1009.43 1009.38 1009.52 1009.67 1009.83 1009.73 1009.41 1009.54 1009.11 1008.87 1008.19 1007.68 1007.75 1007.56 1007.03 1008.16 1007.24 1006.75 1006.59 1006.68 1006.89 1007.18 1007.58
1016.55 1016.15 1015.80 1015.52 1015.27 1015.05 1014.80 1014.56 1014.34 1014.13 1013.96 1013.81 1013.62 1013.48 1013.32 1012.47 1010.11 1008.16 1008.33 1008.53 1008.92 1009.26 1009.45 1009.61 1009.76 1009.80 1009.76 1009.53 1009.30 1009.23 1008.68 1008.44 1007.86 1007.66 1007.34 1007.18 1006.92 1006.50 1006.32 1005.96 1006.16 1006.72 1006.29 1006.43 1007.89
1016.41 1015.98 1015.60 1015.30 1015.07 1014.83 1014.57 1014.35 1014.15 1013.97 1013.78 1013.66 1013.54 1013.42 1013.08 1011.17 1008.06 1008.06 1008.57 1008.87 1008.93 1009.30 1009.32 1009.43 1009.33 1009.38 1009.43 1009.30 1009.13 1008.58 1008.37 1008.00 1007.88 1007.19 1006.67 1006.67 1006.63 1006.42 1005.89 1005.80 1006.47 1006.92 1006.89 1007.00 1007.14
1016.32 1015.88 1015.49 1015.16 1014.81 1014.48 1014.21 1013.99 1013.83 1013.73 1013.63 1013.54 1013.42 1013.24 1012.47 1009.57 1008.01 1008.20 1008.49 1008.62 1008.66 1008.71 1009.04 1009.07 1008.90 1009.33 1009.30 1009.12 1008.66 1008.47 1008.46 1008.00 1007.21 1006.99 1006.97 1006.84 1007.31 1006.67 1005.58 1005.48 1006.53 1006.90 1007.06 1007.47 1008.10
1016.21 1015.76 1015.33 1014.95 1014.55 1014.09 1013.78 1013.57 1013.41 1013.41 1013.40 1013.37 1013.31 1013.09 1011.20 1008.36 1007.95 1008.18 1008.45 1008.43 1008.14 1008.38 1008.41 1008.30 1008.70 1009.10 1009.23 1008.85 1008.97 1009.01 1008.94 1008.77 1007.83 1007.19 1006.72 1006.68 1006.60 1006.01 1005.89 1006.20 1006.79 1007.03 1007.85 1008.63 1008.76
1016.19 1015.70 1015.22 1014.75 1014.30 1013.79 1013.29 1013.02 1012.92 1013.07 1013.25 1013.27 1013.32 1012.65 1010.21 1007.95 1007.96 1007.23 1007.69 1007.91 1007.61 1007.89 1008.09 1008.02 1008.55 1009.25 1009.25 1009.61 1010.02 1010.15 1009.79 1009.30 1008.49 1007.60 1007.42 1007.28 1006.93 1005.85 1005.74 1006.26 1006.74 1008.17 1008.72 1009.24 1009.58
1016.13 1015.60 1015.09 1014.54 1014.07 1013.58 1012.94 1012.55 1012.78 1012.90 1013.20 1013.10 1012.75 1012.42 1009.65 1008.24 1007.56 1007.07 1007.14 1007.27 1007.47 1007.83 1008.32 1008.60 1009.45 1010.02 1010.59 1010.70 1010.86 1010.65 1010.22 1009.58 1008.94 1007.88 1007.21 1007.40 1006.56 1006.42 1005.94 1006.37 1007.62 1008.92 1009.50 1010.14 1010.48
1016.14 1015.49 1014.94 1014.37 1013.82 1013.43 1012.82 1012.80 1013.13 1012.77 1012.50 1011.79 1010.99 1010.49 1009.13 1007.87 1007.14 1007.01 1006.94 1007.28 1007.64 1008.36 1009.17 1009.57 1010.36 1010.49 1010.39 1010.35 1010.22 1010.17 1010.07 1009.74 1008.82 1008.25 1008.23 1007.98 1007.50 1006.83 1006.91 1007.25 1008.42 1009.59 1010.29 1010.94 1011.52
1016.22 1015.49 1014.76 1014.17 1013.69 1013.31 1013.22 1013.02 1012.42 1012.02 1011.40 1010.02 1009.59 1009.38 1008.39 1007.99 1007.75 1006.93 1007.02 1007.74 1008.06 1008.85 1009.39 1010.10 1010.11 1009.43 1009.56 1009.84 1010.04 1010.04 1009.90 1009.51 1008.80 1008.31 1009.15 1008.38 1008.23 1008.14 1008.40 1008.51 1009.06 1010.04 1011.12 1011.59 1012.20
1016.17 1015.43 1014.68 1013.89 1013.46 1013.22 1013.03 1012.11 1011.59 1011.46 1011.59 1009.47 1008.62 1008.09 1007.57 1007.76 1007.50 1006.91 1007.20 1007.70 1008.22 1008.89 1009.36 1009.91 1009.03 1008.79 1009.12 1009.26 1009.37 1009.45 1009.72 1009.65 1009.65 1009.27 1009.44 1009.25 1009.62 1010.14 1010.27 1010.09 1010.54 1011.80 1012.51 1013.30 1013.48
1016.02 1015.29 1014.57 1013.75 1013.39 1013.18 1012.35 1011.35 1011.20 1011.15 1011.47 1009.44 1008.04 1006.93 1006.93 1007.10 1007.12 1006.73 1007.00 1007.55 1008.20 1008.80 1009.14 1009.55 1008.86 1008.60 1008.81 1009.07 1009.22 1009.53 1009.59 1010.03 1010.21 1010.47 1011.07 1011.19 1012.07 1012.43 1012.77 1012.72 1013.08 1013.75 1014.27 1014.64 1014.91
1015.81 1015.15 1014.49 1014.34 1013.58 1012.87 1011.73 1011.14 1010.87 1011.11 1011.00 1008.74 1007.47 1006.31 1006.70 1007.24 1007.19 1006.85 1006.82 1007.44 1008.29 1008.88 1009.35 1009.51 1009.12 1008.91 1008.91 1009.07 1009.17 1009.71 1009.84 1010.66 1011.07 1011.91 1012.63 1013.24 1014.19 1015.48 1014.95 1015.25 1015.62 1015.59 1015.91 1016.31 1016.10
1015.25 1014.88 1014.43 1013.93 1013.71 1011.86 1011.18 1011.01 1010.99 1011.84 1010.23 1008.38 1007.23 1006.88 1007.22 1007.33 1007.48 1007.60 1007.72 1007.96 1008.61 1009.29 1009.73 1009.70 1009.04 1008.94 1008.95 1009.24 1009.45 1009.85 1010.64 1011.87 1012.89 1013.75 1014.76 1015.13 1015.58 1017.10 1016.81 1016.92 1017.33 1017.18 1017.33 1017.67 1017.67
1014.67 1013.88 1014.11 1013.11 1012.30 1011.44 1011.08 1011.58 1012.45 1011.70 1009.78 1008.63 1007.78 1007.56 1007.67 1007.93 1008.18 1008.52 1009.24 1009.85 1010.47 1010.73 1011.47 1010.73 1010.20 1009.56 1009.22 1009.43 1009.94 1010.76 1012.38 1013.75 1015.02 1015.57 1016.44 1015.98 1016.59 1017.93 1018.20 1018.36 1018.66 1018.98 1019.37 1019.45 1019.22
1014.32 1013.15 1013.02 1011.97 1011.52 1011.24 1011.92 1012.80 1012.50 1010.97 1009.85 1008.68 1008.09 1007.97 1008.29 1008.48 1009.27 1009.77 1010.53 1011.38 1011.60 1011.91 1012.61 1012.41 1011.45 1010.65 1010.13 1010.39 1011.14 1012.11 1013.24 1014.85 1016.18 1017.10 1017.28 1016.97 1018.17 1019.53 1019.67 1019.86 1019.91 1020.10 1020.53 1020.64 1020.90
1014.09 1012.98 1012.68 1011.12 1011.21 1011.60 1012.77 1013.30 1012.08 1010.83 1009.71 1009.13 1008.65 1009.00 1009.10 1009.07 1009.70 1010.65 1011.60 1012.32 1012.73 1012.75 1013.15 1013.29 1012.59 1011.60 1011.08 1011.00 1011.57 1012.60 1013.94 1014.98 1016.62 1018.02 1018.32 1018.83 1019.30 1020.02 1020.95 1021.18 1021.25 1021.77 1021.84 1022.29 1022.43
1015.57 1014.38 1012.41 1010.89 1010.94 1011.91 1013.08 1013.18 1011.85 1010.38 1009.50 1009.20 1009.77 1009.99 1010.24 1010.37 1010.68 1011.34 1012.28 1012.88 1013.12 1013.33 1013.28 1014.20 1013.98 1013.14 1012.28 1011.92 1012.24 1012.81 1014.19 1015.67 1017.37 1019.13 1020.22 1020.40 1021.05 1022.34 1022.45 1022.93 1023.19 1023.16 1023.28 1023.46 1023.44
1016.01 1014.64 1011.90 1011.08 1011.23 1012.82 1013.68 1012.90 1011.41 1009.90 1009.42 1009.51 1009.98 1010.43 1011.04 1011.40 1011.61 1012.32 1013.05 1013.27 1013.21 1013.75 1013.81 1014.75 1015.22 1014.80 1013.90 1014.05 1014.08 1014.20 1015.19 1016.91 1018.46 1019.79 1020.91 1021.81 1022.64 1023.05 1023.94 1024.32 1024.40 1024.39 1024.23 1024.08 1023.91
1017.70 1015.55 1011.87 1011.20 1012.64 1013.94 1013.74 1012.34 1010.94 1010.03 1009.53 1009.87 1010.41 1010.87 1011.45 1012.08 1012.65 1012.97 1013.39 1013.56 1013.71 1014.08 1015.01 1015.87 1016.67 1016.79 1016.10 1015.25 1015.12 1015.32 1016.50 1017.67 1019.58 1020.78 1021.68 1022.31 1023.18 1023.57 1024.35 1024.82 1025.09 1024.97 1024.74 1024.70 1024.63
1019.02 1016.70 1012.61 1012.06 1013.62 1014.36 1013.28 1012.09 1010.93 1010.32 1010.24 1010.58 1011.17 1011.55 1012.06 1012.80 1013.50 1013.72 1013.94 1014.27 1014.19 1014.86 1015.72 1016.39 1017.88 1018.09 1017.39 1016.73 1016.37 1016.81 1017.55 1018.25 1019.63 1020.79 1021.87 1023.18 1023.71 1023.95 1024.51 1024.89 1025.02 1025.01 1025.03 1025.00 1024.81
1019.39 1017.87 1015.31 1014.36 1014.69 1014.64 1013.99 1012.38 1011.36 1010.69 1011.08 1011.44 1012.16 1012.26 1013.06 1013.84 1013.90 1014.47 1014.71 1014.91 1015.00 1015.62 1016.16 1016.71 1018.78 1019.28 1019.17 1018.73 1018.39 1018.31 1018.63 1018.94 1020.00 1021.54 1022.18 1022.72 1023.68 1024.47 1024.78 1025.20 1025.41 1025.61 1025.65 1025.57 1025.26
1019.76 1019.48 1018.71 1017.09 1015.95 1015.38 1014.41 1013.01 1012.12 1011.83 1011.89 1012.38 1013.21 1013.68 1013.96 1014.86 1015.14 1015.31 1015.30 1015.52 1015.78 1016.27 1016.86 1017.86 1019.51 1019.77 1019.72 1019.38 1018.98 1018.98 1019.26 1019.55 1020.44 1021.40 1022.38 1023.00 1023.81 1024.70 1025.28 1025.65 1025.84 1025.86 1025.85 1025.68 1025.30
1020.73 1020.65 1019.59 1018.31 1016.93 1015.73 1014.54 1013.54 1012.80 1012.83 1012.99 1013.64 1014.34 1014.63 1014.56 1015.35 1015.66 1015.79 1015.82 1016.07 1016.33 1016.98 1017.85 1018.92 1020.13 1020.51 1020.61 1020.04 1019.77 1019.90 1020.11 1020.39 1021.20 1022.34 1023.08 1023.65 1024.26 1024.59 1024.78 1024.99 1025.39 1025.75 1025.76 1025.43 1024.99
1021.18 1020.93 1020.72 1018.92 1017.54 1016.23 1015.01 1013.91 1013.41 1013.25 1013.98 1013.96 1014.67 1015.11 1015.42 1015.71 1015.90 1016.00 1016.16 1016.51 1016.83 1017.54 1018.71 1019.70 1020.82 1021.94 1021.90 1021.35 1020.82 1021.04 1020.95 1021.17 1022.07 1022.68 1023.20 1024.11 1024.56 1024.92 1025.23 1025.58 1025.78 1025.92 1025.88 1025.69 1025.36
Wind_Speed
12 12 12 11 11 10 10 9 8 8 8 9 9 10 9 10 12 1 6 11 6 3 4 4 4 6 3 0 1 3 5 1 3 1 3 2 3 8 5 9 7 9 4 4 12
12 12 12 12 11 11 10 9 8 8 8 9 9 9 9 9 3 5 12 7 9 4 4 4 4 6 4 1 1 5 4 9 4 4 1 4 1 1 9 9 5 4 3 4 15
13 12 11 11 10 9 9 9 8 8 8 8 8 8 7 6 4 7 2 12 5 2 2 2 1 2 2 1 2 3 5 7 7 9 2 5 5 5 5 5 3 3 4 6 7
12 12 11 10 9 9 8 7 7 7 7 8 8 8 7 1 1 1 4 7 8 2 1 2 3 3 1 2 2 1 7 6 5 3 5 4 7 6 6 7 6 7 10 5 8
13 12 11 9 9 8 7 7 7 6 7 7 6 6 2 3 9 4 8 8 6 5 3 2 1 2 1 2 2 6 5 4 10 5 4 7 8 9 6 8 7 6 5 2 12
14 13 12 11 9 8 7 7 7 7 7 6 5 4 1 3 4 4 7 5 5 3 4 6 6 6 3 3 3 4 5 6 9 9 13 9 7 3 6 7 6 5 8 5 5
15 14 13 11 10 9 8 7 7 8 7 6 4 2 1 11 2 3 7 4 4 6 4 6 6 3 2 3 3 4 3 7 6 3 7 6 3 6 12 3 1 8 8 8 3
17 15 15 13 12 11 10 9 8 7 6 5 3 2 7 5 4 3 4 6 6 7 3 5 5 5 4 2 7 3 5 2 7 1 4 10 9 15 10 6 7 7 7 8 9
19 17 16 15 13 13 14 12 8 4 4 4 1 0 10 9 2 6 8 5 2 3 5 4 2 2 6 4 6 7 2 2 9 2 1 5 10 8 8 8 6 7 7 11 11
21 19 17 16 15 14 16 3 9 8 2 3 3 3 5 4 5 2 5 3 1 2 4 5 6 4 5 5 4 4 2 3 5 7 3 4 20 5 6 7 8 8 8 10 12
23 21 19 17 15 12 7 2 5 3 2 7 7 5 7 7 3 2 1 3 3 8 2 3 5 6 10 7 5 3 3 5 7 7 1 5 6 6 2 7 11 9 9 10 10
23 22 21 19 16 12 0 2 3 3 8 8 11 6 6 1 5 3 4 2 2 2 1 6 6 9 6 3 4 3 3 8 8 3 4 2 4 5 6 3 8 15 9 10 8
23 21 20 20 18 0 1 5 2 3 0 8 5 4 5 8 6 5 7 2 3 1 4 6 9 9 4 0 2 2 4 2 4 3 2 4 8 8 15 9 5 8 9 8 8
25 21 19 22 3 2 5 4 6 4 5 7 3 6 4 4 3 3 7 5 1 2 1 5 7 2 4 3 4 3 2 1 1 4 1 5 4 11 16 15 13 12 11 10 10
26 20 18 8 2 0 4 7 3 5 3 3 3 2 3 6 2 2 2 3 2 3 6 5 1 3 6 2 2 4 1 2 2 4 5 8 7 11 7 12 11 12 14 13 12
29 22 12 1 1 6 7 6 6 7 4 3 4 3 3 2 2 2 5 7 2 3 5 3 2 3 0 3 4 3 4 8 5 4 6 6 6 8 4 2 9 15 16 15 16
31 25 5 2 4 3 3 6 6 3 4 3 4 3 4 3 2 4 4 7 4 5 6 7 5 6 4 6 6 9 7 4 5 6 3 4 9 3 3 10 13 14 15 16 16
33 23 7 5 1 3 5 6 3 3 5 4 2 3 5 5 2 3 3 4 7 5 4 4 5 7 8 3 1 4 5 6 3 2 3 4 6 6 14 14 15 15 13 15 15
25 4 2 4 7 3 7 3 7 5 3 5 4 6 6 4 6 6 4 3 4 4 5 3 3 6 5 3 3 1 5 3 7 3 5 1 6 12 11 13 15 15 15 12 10
5 5 5 2 6 6 6 4 4 4 4 4 3 3 4 6 4 5 2 2 2 5 1 1 3 3 6 7 6 6 3 4 5 2 3 1 4 1 6 9 11 13 10 7 6
4 5 4 3 4 7 4 7 5 7 1 3 2 3 4 3 3 3 2 3 2 2 7 2 4 7 3 5 3 6 4 7 6 4 6 4 4 5 2 4 6 7 7 8 8
4 3 4 3 5 1 2 6 4 2 4 6 5 3 3 4 4 3 4 1 4 2 4 2 4 1 3 6 4 5 4 4 7 3 2 4 6 6 6 3 2 5 7 7 5
3 4 5 4 2 3 6 5 4 2 3 3 3 2 4 3 5 3 4 4 6 5 2 3 3 4 10 7 7 7 5 4 5 4 4 6 5 5 1 3 4 7 7 5 7
3 5 6 6 1 3 4 3 1 5 6 7 5 5 5 5 7 3 3 5 4 4 8 7 4 5 7 3 3 4 5 3 5 4 3 5 6 1 3 5 6 6 6 7 7
4 2 1 5 4 4 3 4 3 2 4 8 5 6 3 3 3 3 3 2 5 4 4 5 4 2 2 2 1 1 4 6 3 0 4 3 5 4 4 5 5 6 5 8 10
3 4 6 4 4 4 3 4 4 3 5 3 6 4 4 5 4 4 3 1 2 4 3 3 2 1 1 3 5 4 7 7 6 5 6 5 2 1 5 5 6 4 7 11 12
2 1 4 5 6 2 3 2 2 5 6 5 8 5 5 4 3 2 1 1 2 6 3 3 5 3 2 4 4 4 3 3 4 3 5 2 2 1 5 6 8 5 7 10 10
Wind_Direction
346 338 335 331 328 325 322 321 324 321 313 308 306 307 313 319 311 144 257 222 181 327 307 289 31 352 94 341 288 99 67 181 262 228 197 321 354 322 295 86 96 200 228 207 120
346 340 335 330 328 326 323 322 322 317 310 306 306 310 320 332 325 266 247 232 232 328 356 43 6 6 23 212 31 100 127 206 236 295 269 230 80 241 31 58 27 265 64 97 143
348 340 334 330 327 324 321 321 318 313 308 308 310 311 323 324 324 250 247 215 154 143 338 336 52 67 39 357 226 162 183 199 242 249 233 302 343 155 96 24 192 177 151 128 146
350 344 337 331 325 322 318 314 310 306 303 303 306 314 324 319 162 298 75 142 149 151 258 354 31 84 51 227 232 142 246 201 242 329 311 228 141 241 182 179 202 246 171 151 157
354 347 341 332 321 313 306 298 287 283 285 288 297 315 320 337 255 246 125 123 122 145 183 154 102 144 189 246 193 183 254 172 243 147 226 276 269 271 200 192 165 259 309 232 146
354 351 344 336 326 315 302 292 282 272 265 271 283 299 351 307 245 154 129 128 137 155 170 177 195 199 248 228 164 220 233 262 260 208 208 174 251 30 196 126 168 209 213 257 335
354 351 346 339 330 316 296 284 274 267 265 266 272 269 88 238 328 105 151 198 189 166 195 198 192 160 214 294 244 247 281 325 293 299 216 131 338 236 250 23 140 194 179 126 8
353 349 345 340 332 319 300 286 270 257 253 249 252 248 251 247 322 166 136 282 220 212 231 245 158 183 182 270 13 354 46 1 291 258 206 151 220 242 248 184 221 173 68 77 35
350 347 342 337 333 322 307 290 261 245 223 184 262 36 280 308 219 257 157 233 200 147 221 278 75 127 22 66 10 4 206 232 316 208 91 164 255 199 202 181 223 93 107 97 84
348 344 340 332 328 320 317 279 131 119 168 198 254 343 284 308 275 240 182 251 57 38 28 53 44 48 34 67 235 260 333 300 262 315 15 277 249 234 177 182 114 120 110 101 92
344 341 337 329 325 327 353 46 15 359 161 210 237 234 278 273 299 255 132 41 53 56 52 351 52 247 236 201 199 207 226 261 280 267 35 287 253 193 78 101 109 126 127 111 99
341 337 333 327 323 320 342 66 210 209 311 242 244 251 261 241 306 286 102 144 93 234 36 8 253 242 239 189 215 246 347 309 293 295 178 322 26 353 38 15 145 143 136 128 118
339 334 329 324 319 1 142 238 86 248 234 297 209 214 228 136 226 264 123 153 191 245 205 187 246 338 146 291 262 239 189 193 235 345 325 31 344 23 354 14 71 64 70 68 85
337 333 329 324 354 317 290 295 337 170 55 278 261 271 152 174 281 210 186 161 97 266 102 211 295 76 95 87 115 88 213 210 8 63 252 23 282 17 359 39 49 44 44 48 44
336 333 328 324 264 344 277 308 298 58 28 250 233 230 88 142 210 308 109 59 336 311 76 275 5 58 62 343 143 197 181 353 128 93 72 360 75 315 354 23 18 50 61 52 54
332 332 326 143 288 243 305 325 50 46 264 294 187 202 130 185 224 42 34 37 69 84 5 331 298 60 66 61 41 22 55 38 52 79 55 291 126 340 8 358 72 71 54 48 48
331 326 279 296 220 263 329 46 47 146 332 304 217 180 189 218 85 68 42 23 46 41 358 343 344 323 31 23 16 49 52 346 16 22 191 287 57 166 20 49 63 65 58 49 48
329 322 183 230 145 26 49 53 175 251 266 298 340 148 180 153 104 88 80 51 23 51 69 53 342 3 338 79 180 36 124 144 148 167 193 16 141 46 63 65 63 64 61 49 40
324 329 283 278 179 85 74 78 208 214 274 344 15 49 354 18 111 92 63 78 23 24 112 49 292 333 30 344 92 357 41 182 105 9 72 86 81 47 40 47 44 49 48 46 43
331 334 280 320 146 66 77 229 244 229 324 70 87 10 52 351 73 95 71 345 102 16 135 149 353 0 308 34 14 92 147 45 11 123 103 286 76 136 349 23 29 24 18 9 18
18 359 292 74 64 52 156 230 280 278 275 89 136 63 56 7 54 68 28 359 43 48 60 78 102 296 13 25 303 349 22 53 106 120 152 175 254 147 98 34 20 349 348 350 7
354 350 313 19 60 38 179 208 240 249 44 34 82 84 98 46 44 80 132 111 2 17 56 8 124 280 243 297 333 94 89 93 112 232 77 137 248 128 140 139 51 340 334 337 9
359 272 312 74 122 309 286 271 244 118 39 77 67 69 50 82 95 71 60 14 45 60 117 175 30 21 353 356 4 37 4 71 99 62 197 132 239 150 83 18 354 348 341 334 343
23 347 324 36 83 59 333 290 84 30 48 73 51 58 78 40 18 102 105 15 41 80 68 80 87 141 179 219 233 336 4 352 111 102 211 220 162 194 343 333 320 316 309 320 320
32 306 153 317 336 337 257 296 106 53 77 29 39 25 107 82 53 72 75 126 37 20 57 87 109 133 197 265 355 22 356 16 109 204 157 170 119 186 208 232 246 274 312 317 323
56 25 349 286 289 312 341 335 111 76 43 25 93 25 77 118 168 173 146 144 164 24 69 33 160 97 69 355 1 88 29 88 66 84 71 89 103 322 275 326 325 344 329 336 336
315 5 99 285 324 13 292 283 58 113 27 107 150 95 74 159 171 205 203 159 160 145 123 95 118 81 257 335 347 1 336 84 92 26 132 189 210 305 306 315 318 335 324 326 323